Weather History for Newport Airport, OR

Change the Weather History Date:

Thursday, September 8, 2011

  Actual Average Record
Temperature  
Mean Temperature 54 °F -  
Max Temperature 59 °F 61 °F 73 °F (2008)
Min Temperature 50 °F 50 °F 42 °F (2006)
Degree Days  
Heating Degree Days 10    
Growing Degree Days 4 (Base 50)    
Moisture  
Dew Point 53 °F    
Average Humidity 96    
Maximum Humidity 100    
Minimum Humidity 82    
Precipitation  
Precipitation 0.00 in - - ()
Sea Level Pressure  
Sea Level Pressure 30.18 in    
Wind  
Wind Speed 2 mph (NNW)    
Max Wind Speed 15 mph    
Max Gust Speed 17 mph    
Visibility 2 miles    
Events Fog    
Averages and records for this station are not official NWS values.
T = Trace of Precipitation, MM = Missing Value Source: NWS Daily Summary

Daily Weather History Graph

Daily Weather History Graph

Search for Another Location

Airport:

Trip Planner

Search our weather history database for the weather conditions in past years. The results will help you decide how hot, cold, wet, or windy it might be!

Date:

Astronomy

Sep. 08, 2011 Rise Set
Actual Time 6:46 AM PDT 7:40 PM PDT
Civil Twilight 6:17 AM PDT 8:09 PM PDT
Nautical Twilight 5:41 AM PDT 8:45 PM PDT
Astronomical Twilight 5:04 AM PDT 9:21 PM PDT
Moon 5:43 PM PDT (9/8) 3:03 AM PDT (9/8)
Length of Visible Light 13h 52m
Length of Day
12h 53m
Waxing Gibbous, 88% of the Moon is Illuminated
Sep 8
Waxing Gibbous
Sep 12
Full
Sep 20
Last Quarter
Sep 27
New
Oct 3
First Quarter

Hourly Weather History & Observations

Time (PDT) Temp. Dew Point Humidity Pressure Visibility Wind Dir Wind Speed Gust Speed Precip Events Conditions
12:15 AM 50.0 °F 50.0 °F 100% 30.15 in 0.5 mi Calm Calm - N/A Fog Fog
12:35 AM 51.8 °F 51.8 °F 100% 30.16 in 0.5 mi Calm Calm - N/A Fog Fog
12:55 AM 51.8 °F 51.8 °F 100% 30.16 in 0.5 mi Calm Calm - N/A Fog Fog
1:15 AM 51.8 °F 51.8 °F 100% 30.16 in 0.5 mi Calm Calm - N/A Fog Fog
1:35 AM 53.6 °F 51.8 °F 94% 30.15 in 0.8 mi Calm Calm - N/A   Overcast
1:55 AM 53.6 °F 53.6 °F 100% 30.15 in 1.5 mi Calm Calm - N/A   Overcast
2:15 AM 53.6 °F 53.6 °F 100% 30.14 in 1.8 mi Calm Calm - N/A   Overcast
2:35 AM 53.6 °F 53.6 °F 100% 30.14 in 1.0 mi Calm Calm - N/A   Overcast
2:55 AM 51.8 °F 50.0 °F 94% 30.14 in 0.2 mi Calm Calm - N/A Fog Fog
3:15 AM 51.8 °F 51.8 °F 100% 30.14 in 0.2 mi Calm Calm - N/A Fog Fog
3:35 AM 53.6 °F 53.6 °F 100% 30.14 in 0.8 mi Calm Calm - N/A   Overcast
3:55 AM 53.6 °F 53.6 °F 100% 30.14 in 0.8 mi Calm Calm - N/A   Overcast
4:15 AM 53.6 °F 53.6 °F 100% 30.14 in 1.2 mi Calm Calm - N/A   Overcast
4:35 AM 53.6 °F 53.6 °F 100% 30.14 in 0.8 mi Calm Calm - N/A   Overcast
4:55 AM 53.6 °F 53.6 °F 100% 30.15 in 2.0 mi North 3.5 mph - N/A   Overcast
5:15 AM 53.6 °F 53.6 °F 100% 30.15 in 3.0 mi Calm Calm - N/A   Overcast
5:35 AM 53.6 °F 53.6 °F 100% 30.16 in 2.0 mi Calm Calm - N/A   Overcast
5:55 AM 51.8 °F 51.8 °F 100% 30.16 in 0.5 mi West 3.5 mph - N/A Fog Fog
6:15 AM 51.8 °F 51.8 °F 100% 30.17 in 0.2 mi Calm Calm - N/A Fog Fog
6:35 AM 51.8 °F 51.8 °F 100% 30.18 in 0.2 mi Calm Calm - N/A Fog Fog
6:55 AM 51.8 °F 51.8 °F 100% 30.19 in 0.2 mi Calm Calm - N/A Fog Fog
7:15 AM 51.8 °F 51.8 °F 100% 30.19 in 0.2 mi Calm Calm - N/A Fog Fog
7:35 AM 53.6 °F 53.6 °F 100% 30.19 in 1.0 mi Calm Calm - N/A   Overcast
7:55 AM 53.6 °F 53.6 °F 100% 30.20 in 1.0 mi Calm Calm - N/A   Overcast
8:15 AM 53.6 °F 53.6 °F 100% 30.20 in 1.0 mi North 4.6 mph - N/A   Overcast
8:55 AM 55.4 °F 55.4 °F 100% 30.20 in 10.0 mi North 3.5 mph - N/A   Overcast
9:15 AM 55.4 °F 55.4 °F 100% 30.20 in 4.0 mi Calm Calm - N/A   Overcast
9:35 AM 55.4 °F 55.4 °F 100% 30.20 in 5.0 mi Calm Calm - N/A   Overcast
9:55 AM 55.4 °F 55.4 °F 100% 30.21 in 10.0 mi Calm Calm - N/A   Overcast
10:15 AM 55.4 °F 55.4 °F 100% 30.21 in 2.5 mi NW 3.5 mph - N/A   Overcast
10:35 AM 55.4 °F 55.4 °F 100% 30.21 in 5.0 mi NW 4.6 mph - N/A   Overcast
10:55 AM 55.4 °F 55.4 °F 100% 30.21 in 4.0 mi NNW 3.5 mph - N/A   Overcast
11:15 AM 57.2 °F 55.4 °F 94% 30.21 in 7.0 mi NNW 6.9 mph - N/A   Overcast
11:35 AM 57.2 °F 53.6 °F 88% 30.21 in 7.0 mi North 8.1 mph - N/A   Overcast
12:15 PM 59.0 °F 53.6 °F 82% 30.21 in 7.0 mi NNW 10.4 mph - N/A   Overcast
12:35 PM 59.0 °F 53.6 °F 82% 30.21 in 7.0 mi NNW 12.7 mph 17.3 mph N/A   Overcast
12:55 PM 59.0 °F 53.6 °F 82% 30.21 in 7.0 mi NW 9.2 mph - N/A   Overcast
1:15 PM 59.0 °F 53.6 °F 82% 30.21 in 7.0 mi NW 10.4 mph - N/A   Overcast
1:35 PM 59.0 °F 53.6 °F 82% 30.21 in 1.5 mi NNW 10.4 mph - N/A   Haze
1:55 PM 57.2 °F 53.6 °F 88% 30.21 in 1.0 mi NW 9.2 mph - N/A   Overcast
2:15 PM 57.2 °F 53.6 °F 88% 30.21 in 1.8 mi NW 9.2 mph - N/A   Overcast
2:35 PM 55.4 °F 53.6 °F 94% 30.21 in 1.0 mi NNW 9.2 mph - N/A   Overcast
2:55 PM 55.4 °F 53.6 °F 94% 30.21 in 1.2 mi NW 8.1 mph - N/A   Overcast
3:15 PM 55.4 °F 53.6 °F 94% 30.21 in 0.8 mi NNW 5.8 mph - N/A   Overcast
3:35 PM 55.4 °F 53.6 °F 94% 30.21 in 1.8 mi NNW 6.9 mph - N/A   Overcast
3:55 PM 57.2 °F 53.6 °F 88% 30.20 in 2.0 mi NNW 6.9 mph - N/A   Overcast
4:15 PM 57.2 °F 53.6 °F 88% 30.20 in 2.0 mi NNW 9.2 mph - N/A   Overcast
4:35 PM 55.4 °F 53.6 °F 94% 30.20 in 2.0 mi NW 8.1 mph - N/A   Overcast
4:55 PM 55.4 °F 53.6 °F 94% 30.20 in 1.5 mi NNW 10.4 mph 17.3 mph N/A   Overcast
5:15 PM 57.2 °F 53.6 °F 88% 30.19 in 2.0 mi NNW 15.0 mph - N/A   Overcast
5:35 PM 55.4 °F 53.6 °F 94% 30.19 in 1.8 mi NNW 11.5 mph - N/A   Overcast
5:55 PM 55.4 °F 53.6 °F 94% 30.19 in 2.5 mi NNW 10.4 mph - N/A   Overcast
6:15 PM 53.6 °F 51.8 °F 94% 30.18 in 0.2 mi NNW 12.7 mph - N/A Fog Fog
6:35 PM 53.6 °F 51.8 °F 94% 30.19 in 0.2 mi NNW 11.5 mph - N/A   Drizzle
6:55 PM 53.6 °F 51.8 °F 94% 30.19 in 0.2 mi North 13.8 mph 18.4 mph N/A   Drizzle
7:15 PM 51.8 °F 51.8 °F 100% 30.20 in 0.2 mi NNW 9.2 mph - N/A   Drizzle
7:35 PM 51.8 °F 51.8 °F 100% 30.20 in 0.2 mi North 10.4 mph - N/A   Drizzle
7:55 PM 53.6 °F 51.8 °F 94% 30.20 in 0.5 mi NNW 11.5 mph - N/A   Light Drizzle
8:15 PM 53.6 °F 53.6 °F 100% 30.21 in 1.2 mi North 8.1 mph - N/A   Overcast
8:35 PM 53.6 °F 53.6 °F 100% 30.21 in 3.0 mi North 11.5 mph 17.3 mph N/A   Overcast
8:55 PM 53.6 °F 53.6 °F 100% 30.22 in 5.0 mi North 8.1 mph - N/A   Overcast
9:15 PM 53.6 °F 53.6 °F 100% 30.22 in 5.0 mi North 8.1 mph - N/A   Overcast
9:35 PM 53.6 °F 53.6 °F 100% 30.22 in 3.0 mi North 10.4 mph - N/A   Overcast
9:55 PM 53.6 °F 51.8 °F 94% 30.22 in 3.0 mi North 6.9 mph - N/A   Overcast
10:15 PM 53.6 °F 51.8 °F 94% 30.22 in 3.0 mi North 6.9 mph - N/A   Overcast
10:55 PM 51.8 °F 51.8 °F 100% 30.23 in 3.0 mi NNW 8.1 mph - N/A   Overcast
11:15 PM 51.8 °F 51.8 °F 100% 30.23 in 2.5 mi North 8.1 mph - N/A   Overcast
11:55 PM 51.8 °F 51.8 °F 100% 30.23 in 4.0 mi NNW 6.9 mph - N/A   Overcast